Weather History for KSGR - March, 2014

Change the Weather History Date:

Monday, March 31, 2014

  Actual Average Record
Temperature  
Mean Temperature 66 °F -  
Max Temperature 78 °F - - ()
Min Temperature 55 °F - - ()
Cooling Degree Days 1    
Growing Degree Days 16 (Base 50)    
Moisture  
Dew Point 60 °F    
Average Humidity 77    
Maximum Humidity 93    
Minimum Humidity 56    
Precipitation  
Precipitation 0.00 in - - ()
Sea Level Pressure  
Sea Level Pressure 30.00 in    
Wind  
Wind Speed 10 mph (SSE)    
Max Wind Speed 20 mph    
Max Gust Speed 25 mph    
Visibility 10 miles    
Events      
T = Trace of Precipitation, MM = Missing Value Source: NWS Daily Summary

Daily Weather History Graph

Daily Weather History Graph

Search for Another Location

Airport or City:

Trip Planner

Search our weather history database for the weather conditions in past years. The results will help you decide how hot, cold, wet, or windy it might be!

Date:

Astronomy

Mar. 31, 2014 Rise Set
Actual Time 7:13 AM CDT 7:40 PM CDT
Civil Twilight 6:49 AM CDT 8:04 PM CDT
Nautical Twilight 6:21 AM CDT 8:32 PM CDT
Astronomical Twilight 5:52 AM CDT 9:01 PM CDT
Moon 7:42 AM CDT (3/31) 8:53 PM CDT (3/31)
Length of Visible Light 13h 15m
Length of Day
12h 27m
New Moon, 1% of the Moon is Illuminated
Mar 31
New Moon
Apr 7
First Quarter
Apr 15
Full
Apr 22
Last Quarter
Apr 29
New

Hourly Weather History & Observations

Time (CDT) Temp. Dew Point Humidity Pressure Visibility Wind Dir Wind Speed Gust Speed Precip Events Conditions
12:53 AM 57.9 °F 52.0 °F 81% 30.08 in 10.0 mi SE 8.1 mph - N/A   Clear
1:53 AM 57.0 °F 52.0 °F 83% 30.06 in 10.0 mi SE 6.9 mph - N/A   Clear
2:53 AM 57.0 °F 53.1 °F 87% 30.04 in 10.0 mi SE 8.1 mph - N/A   Clear
3:53 AM 55.0 °F 53.1 °F 93% 30.02 in 10.0 mi SE 5.8 mph - N/A   Clear
4:53 AM 55.0 °F 53.1 °F 93% 30.01 in 10.0 mi SE 6.9 mph - N/A   Clear
5:53 AM 57.0 °F 55.0 °F 93% 29.99 in 10.0 mi SSE 8.1 mph - N/A   Partly Cloudy
6:53 AM 57.0 °F 55.0 °F 93% 29.99 in 10.0 mi SSE 5.8 mph - N/A   Partly Cloudy
7:53 AM 59.0 °F 57.0 °F 93% 30.01 in 8.0 mi SSE 6.9 mph - N/A   Partly Cloudy
8:53 AM 64.0 °F 60.1 °F 87% 30.02 in 10.0 mi SSE 9.2 mph - N/A   Clear
9:38 AM 68.0 °F 61.0 °F 78% 30.01 in 1.5 mi SSE 15.0 mph - N/A   Clear
9:45 AM 68.0 °F 61.0 °F 78% 30.01 in 10.0 mi SSE 13.8 mph - N/A   Clear
9:53 AM 69.1 °F 61.0 °F 75% 30.02 in 10.0 mi South 17.3 mph 23.0 mph N/A   Clear
10:26 AM 71.1 °F 61.0 °F 70% 30.02 in 10.0 mi SSE 13.8 mph 21.9 mph N/A   Mostly Cloudy
10:53 AM 71.1 °F 60.1 °F 68% 30.03 in 10.0 mi South 19.6 mph 23.0 mph N/A   Mostly Cloudy
11:02 AM 72.0 °F 61.0 °F 68% 30.03 in 10.0 mi SSE 15.0 mph - N/A   Scattered Clouds
11:53 AM 75.0 °F 60.1 °F 60% 30.02 in 10.0 mi South 17.3 mph - N/A   Mostly Cloudy
12:53 PM 77.0 °F 61.0 °F 58% 30.01 in 10.0 mi SSE 15.0 mph 23.0 mph N/A   Partly Cloudy
1:53 PM 75.9 °F 60.1 °F 58% 30.00 in 10.0 mi South 13.8 mph 25.3 mph N/A   Scattered Clouds
2:53 PM 77.0 °F 60.1 °F 56% 29.97 in 10.0 mi South 18.4 mph - N/A   Partly Cloudy
3:53 PM 75.0 °F 60.1 °F 60% 29.96 in 10.0 mi South 11.5 mph - N/A   Partly Cloudy
4:53 PM 75.9 °F 60.1 °F 58% 29.95 in 10.0 mi South 15.0 mph 24.2 mph N/A   Scattered Clouds
5:53 PM 75.0 °F 61.0 °F 62% 29.95 in 10.0 mi SSE 11.5 mph - N/A   Scattered Clouds
6:53 PM 73.0 °F 61.0 °F 66% 29.95 in 10.0 mi SSE 13.8 mph - N/A   Partly Cloudy
7:53 PM 70.0 °F 62.1 °F 76% 29.96 in 10.0 mi SSE 9.2 mph - N/A   Clear
8:15 PM 70.0 °F 63.0 °F 78% 29.96 in 10.0 mi SSE 10.4 mph - N/A   Mostly Cloudy
8:35 PM 69.1 °F 63.0 °F 81% 29.97 in 10.0 mi SSE 12.7 mph - N/A   Overcast
8:53 PM 69.1 °F 63.0 °F 81% 29.97 in 10.0 mi SE 12.7 mph - N/A   Overcast
9:53 PM 68.0 °F 63.0 °F 84% 29.97 in 10.0 mi SE 13.8 mph - N/A   Clear
10:22 PM 66.9 °F 64.0 °F 90% 29.97 in 10.0 mi SE 10.4 mph - N/A   Mostly Cloudy
10:43 PM 68.0 °F 64.0 °F 87% 29.99 in 10.0 mi ESE 8.1 mph - N/A   Overcast
10:53 PM 68.0 °F 64.0 °F 87% 30.00 in 10.0 mi SE 5.8 mph - N/A   Overcast
11:53 PM 68.0 °F 64.0 °F 87% 30.01 in 10.0 mi SSE 8.1 mph - N/A   Overcast